Location: ???????????
(54.5822°N, 39.1075°E)
Time: 14:00:34
(UTC+00:00)

IRIDIUM 103 - Pass Details

Date: 19 May 2025
Orbit: 775 x 780 km, 86.4° (Epoch: 20 June)

Event Time Altitude Azimuth Distance (km) Brightness Sun altitude
Exits shadow 22:40:47 19° 184° (S) 1,807 5.6 -13.5°
Maximum altitude 22:44:39 88° 275° (W) 789 4.3 -13.3°
Drops below altitude 10° 22:49:56 10° 5° (N) 2,346 8.1 -13.0°
Sets 22:52:17 0° 6° (N) 3,278 9.2 -12.9°
